Погода Аул Турара Рыскулова

Погода Аул Турара Рыскулова : погода сейчас, прогноз погоды и архив. Всё, что Вы хотите узнать о погоде Аул Турара Рыскулова!

Поиск расширенной информации на нашем сайте:

Другие новости

Новости СМИ2

Главная страница сайта

Новости сайта

02.10.2013

Напоминаем, что на нашем новом сайте вы можете получить высокодетализированные прогнозы погоды по пунктам России, СНГ и мира (включающие важные для авиации метеовеличины, такие как направление и скорость ветра, видимость, явления погоды, количество и форма облачности, нижняя и верхняя граница облачности), а также ознакомиться с разнообразными материалами по авиационной метеорологии и подборкой полезных ссылок на эту тему.

Сайт Метеоцентр.Азия посвящён разработке технологий оптимизации авиаметеорологического обслуживания, включая проектирование и перспективное создание нескольких автоматизированных авиаметеорологических систем:
- система выпуска высокодетальных прогностических карт явлений погоды для нижнего воздушного пространства по России и ближнему зарубежью;
- система верификации прогнозов TAF (выпускаемых синоптиками официальных АМСГ РФ и ближнего зарубежья) и AUTOTAF (выпускаемых сайтом Метеоцентр.Азия) - выявление ошибок, онлайн-сопоставление с фактической погодой METAR, автоматическое внесение коррективов в прогнозы при резком отклонении фактической погоды от прогноза, подсчёт оправдываемости прогнозов по элементам и в целом;
- система обработки, анализа и отображения авиаметеорологической информации для применения провайдерами метеорологической информации.

Рекомендуем: роликовая гибка металла

Погода Аул Турара Рыскулова - сегодня

Время (UTC), дата Ветер
(°,м/с) 
Видим.   Явления Облачность Т
(°С)
Тd
(°С)
f(%) Тe
(°С)
Pmin
(гПа)
dP
(гПа)
Po
(мм)
O2
(г/м3)
Тmin Tmax R s Состояние
почвы
00 24.03.17 090 (В) 10 км    6/0 верхняя 
[Ci fib]
+6.9 +0.6 64 +8  1020.5  -1  694  273           
03 24.03.17 070 (В) 20000 м    10/10 600 м 
[Sc]
+8.9 +0.4 55 +8  1019  -0.7  694  271           
06 24.03.17 090 (В) 20000 м    10/0 средняя 
[As trans]
+13.8 +1.9 44 +14  1016.9  -0.4  694  266  +5.6         
09 24.03.17 070 (В) 20000 м    10/4 1000 м средняя 
[Sc|As trans]
+13.8 +3.6 50 +13  1014.5  -2.2  692  265           
12 24.03.17 тихо ()   4000 м  мгла  10/5 1000 м средняя 
[Sc|As trans]
+14.5 +5.9 56 +15  1015.3  693  264           
15 24.03.17 300 (СЗ) 4000 м  дымка  8/5 1000 м верхняя 
[Sc|Ci sp]
+10.2 +8.5 89 +11  1019.4  2.6  695  268    +15.5       
18 24.03.17 090 (В) 4000 м  дымка  10/3 1000 м средняя, верхняя 
[Sc|Ac cuf|Ci sp]
+8.2 +7 92 +9  1020.4  0.2  695  270    +15.5       
21 24.03.17 тихо ()   4000 м  дымка  4/0 верхняя 
[Ci sp]
+7 +6.4 96 +7  1020.3  -0.5  694  272           
00 25.03.17 050 (СВ) 0050 м  туман  ?/?  
+6.1 +6.1 100 +6  1020.7  694  273           
03 25.03.17 090 (В) 4000 м  дымка{туман}  10/10 1000 м 
[Sc]
+7.3 +5 85 +7  1019.9  -0.3  694  271           
06 25.03.17 090 (В) 20000 м  {туман}  8/3 1000 м средняя, верхняя 
[Sc|Ac und|Ci sp]
+12.5 +4.1 57 +12  1016.1  -1.9  693  266  +5.4         
09 25.03.17 090 (В) 20000 м    9/5 1000 м верхняя 
[Sc|Ci sp]
+15.3 +6.7 56 +16  1013.6  -1.3  692  263           
12 25.03.17 090 (В) 4000 м  дымка  10/6 300 м верхняя 
[St|Ci sp]
+10.5 +6.2 75 +9  1016  0.7  692  267           
15 25.03.17 090 (В) 10 км  дымка  10/10 600 м 
[St]
+7.6 +5.8 88 +7  1019.2  694  271    +17.5       
18 25.03.17 090 (В) 10 км  в посл. час дождь  10/10 600 м 
[Sc]
+7.4 +6.1 91 +8  1018.7  -0.6  693  271    +17.5       
21 25.03.17 320 (СЗ) 10 км    10/10 600 м 
[Sc]
+7.8 +6.5 91 +9  1017.8  -0.6  693  270           
00 26.03.17 320 (СЗ) 4000 м  ливневой дождь  10/10 600 м кучево-дожд. 
[Cb cap]
+5 +4.1 94 +4  1020.5  1.5  694  274           
03 26.03.17 050 (СВ) 2000 м  ливневой снег  10/10 300 м кучево-дожд. 
[Cb cap]
+5.6 +5.4 99 +6  1024.3  3.6  697  274         
06 26.03.17 тихо ()   4000 м  морось{ливн. осадки}  10/10 300 м 
[St]
+1.8 +1.3 96 +2  1025.8  0.1  697  279  +2.6       
09 26.03.17 320 (СЗ) 4000 м  морось  10/10 300 м 
[St]
+2.2 +1.7 96 +3  1025.2  -0.5  696  278           
12 26.03.17 тихо ()   4000 м  дымка{морось}  10/10 300 м 
[St]
+2.4 +1.9 97 +2  1024.7  -0.3  696  278           
15 26.03.17 тихо ()   10 км    10/10 200 м 
[St]
+3.6 +1.8 88 +4  1023.6  -0.7  696  276    +6     
18 26.03.17 070 (В) 10 км    10/10 200 м 
[St]
+9.3 +1.9 60 +9  1024.5  -1  696  271    +6     
21 26.03.17 050 (СВ) 10 км    10/10 200 м 
[St]
+2.9 +0.8 86 1023.8  -1  696  277           
00 27.03.17 050 (СВ) 10 км  слаб. дождь  10/10 200 м 
[Ns]
+3.1 +1 86 +1  1021.9  -1.6  695  276           
Время (UTC), дата Ветер
(°,м/с) 
Видим.   Явления Облачность Т
(°С)
Тd
(°С)
f(%) Тe
(°С)
Pmin
(гПа)
dP
(гПа)
Po
(мм)
O2
(г/м3)
Тmin Tmax R s Состояние
почвы

Для получения пояснительной информации подведите курсор к названию столбца.

ПОГОДА Аул Турара Рыскулова - архив

Всё, что Вы хотите узнать о погоде Аул Турара Рыскулова - удобно и подробно!

Выберите нужную дату (начиная с 1 января 2015* года) и нажмите кнопку "Найти".
Будут отображены архивные сводки погоды по пункту Аул Турара Рыскулова, начиная с указанной даты.


Отображать данные в формате CSV (для использования в таблицах Excel)


Внимание! Наш архив погоды предназначен исключительно для личного некоммерческого использования в познавательных целях. Если Вам необходимы официальные справки о состоянии погоды (для производственных, юридических, коммерческих и т.п. целей), обращайтесь в органы Росгидромета.

*Примечание: данная дата относится к архиву по метеостанциям СССР (Россия, СНГ, Балтия).
Архив по метеостанциям Зарубежной Европы и Азии (кроме Китая) хранится 10 дней, по другим регионам земного шара (Китай, Африка, Америка, Австралия, Океания) - 1 день.

Аул Турара Рыскулова - район местоположения метеостанции


Название, широта, долгота, высота метеостанции:
Аул Турара Рыскулова (Тюлькубас) 42.5°ш. 70.3°д. 808 м над ур. моря [Казахстан]

Дополнительная информация

В oтличие oт бoльшинства пoгoдных сайтoв мы публикуем пoдрoбную метеoинфoрмацию в детальнoм прoфессиoнальнoм фoрмате.

Характеристики температуры и влажнoсти вoздуха измеряются на высoте 2 м в тени вдали oт зданий и деревьев.
Скoрoсть ветра измеряется на высoте 10 м (на урoвне рoста челoвека скoрoсть ветра ниже в 1.5-2 раза). Если метеoстанция нахoдится в гoрoде или в лесу, тo скoрoсть ветра занижена на 2-4 м/с пo сравнению с oткрытым местoм. Скoрoсть ветра над акватoриями крупных рек и oзёр, а также на вершинах хoлмoв на 2-5 м/с выше, чем в oбычных услoвиях.
Атмoсфернoе давление в разных тoчках местнoсти мoжет значительнo oтличаться oт давления на метеoстанции, в зависимoсти oт услoвий рельефа (при пoдъёме на 10 м давление пoнижается примернo на 1 мм рт.ст.).